Location: Seddon's Corner
(50.0622°N, 96.2921°W)
Time: 01:09:59
(UTC-05:00)

N. Korean satellite - Visible Passes

Search period start: 20 October 2019 00:00
Search period end: 30 October 2019 00:00
Orbit: 455 x 508 km, 97.2° (Epoch: 19 October)

Date Brightness Start Highest point End Pass type
(mag) Time Alt. Az. Time Alt. Az. Time Alt. Az.
21 Oct 7.5 07:13:21 10° NNE 07:16:55 54° E 07:20:30 10° S visible
21 Oct 9.9 19:27:52 10° SW 19:30:09 17° W 19:32:27 10° NW visible
22 Oct 9.0 06:48:20 10° NE 06:51:30 28° E 06:54:42 10° SSE visible
22 Oct 8.8 19:01:34 10° SSW 19:04:39 31° W 19:07:48 10° NNW visible
23 Oct 10.0 06:23:45 10° NE 06:26:01 16° E 06:28:18 10° SE visible
24 Oct 10.4 19:46:54 10° WSW 19:47:47 11° W 19:48:41 10° WNW visible
25 Oct 8.0 07:05:32 10° NNE 07:09:03 44° E 07:12:36 10° S visible
25 Oct 9.6 19:19:35 10° SW 19:22:12 20° W 19:24:52 10° NW visible
26 Oct 9.3 06:40:36 10° NE 06:43:37 24° E 06:46:39 10° SSE visible
26 Oct 8.3 18:53:29 10° SSW 18:56:44 38° W 19:00:02 10° NNW visible
27 Oct 10.2 06:16:14 10° ENE 06:18:05 13° E 06:19:56 10° ESE visible
28 Oct 7.0 07:22:51 10° NNE 07:26:32 72° ESE 07:30:14 10° S visible
28 Oct 10.1 19:38:02 10° WSW 19:39:47 13° W 19:41:33 10° WNW visible
29 Oct 8.4 06:57:42 10° NNE 07:01:09 36° E 07:04:36 10° SSE visible
29 Oct 9.2 19:11:20 10° SSW 19:14:14 24° W 19:17:11 10° NW visible
